McHenry, MD

4:46 PM EDT on September 28, 2016 (GMT -0400)
Oakland

Weather History for K2G4 - October, 2013

Change the Weather History Date:

Thursday, October 10, 2013

  Actual Average (KMGW) Record (KMGW)
Temperature  
Mean Temperature 50 °F 56 °F  
Max Temperature 59 °F 67 °F 89 °F (1949)
Min Temperature 42 °F 45 °F 28 °F (1964)
Degree Days  
Heating Degree Days 14 10  
Month to date heating degree days 82  
Since 1 July heating degree days 179  
Cooling Degree Days 0 1  
Month to date cooling degree days 10  
Year to date cooling degree days 811  
Moisture  
Dew Point 46 °F    
Average Humidity 91    
Maximum Humidity 100    
Minimum Humidity 63    
Precipitation  
Precipitation 0.00 in 0.10 in 0.62 in (1999)
Month to date precipitation 0.95  
Year to date precipitation 33.63  
Sea Level Pressure  
Sea Level Pressure 30.18 in    
Wind  
Wind Speed 7 mph (ENE)    
Max Wind Speed 14 mph    
Max Gust Speed 16 mph    
Visibility 7 miles    
Events Fog    
T = Trace of Precipitation, MM = Missing Value Source: NWS Daily Summary

Daily Weather History Graph

Daily Weather History Graph

Search for Another Location

Airport or City:

Trip Planner

Search our weather history database for the weather conditions in past years. The results will help you decide how hot, cold, wet, or windy it might be!

Date:

Astronomy

Oct. 10, 2013 Rise Set
Actual Time 7:22 AM EDT 6:45 PM EDT
Civil Twilight 6:55 AM EDT 7:12 PM EDT
Nautical Twilight 6:24 AM EDT 7:43 PM EDT
Astronomical Twilight 5:53 AM EDT 8:14 PM EDT
Moon 1:11 PM EDT (10/10) 11:22 PM EDT (10/10)
Length of Visible Light 12h 16m
Length of Day
11h 22m
Waxing Crescent, 35% of the Moon is Illuminated
Oct 10
Waxing Crescent
Oct 11
First Quarter
Oct 18
Full
Oct 26
Last Quarter
Nov 3
New

Hourly Weather History & Observations

Time (EDT) Temp. Windchill Dew Point Humidity Pressure Visibility Wind Dir Wind Speed Gust Speed Precip Events Conditions
12:10 AM 44.6 °F 39.7 °F 39.2 °F 81% 30.25 in 10.0 mi ESE 9.2 mph - N/A   Clear
12:30 AM 44.6 °F 40.7 °F 39.2 °F 81% 30.24 in 10.0 mi East 6.9 mph - N/A   Clear
12:50 AM 44.6 °F 41.4 °F 39.2 °F 81% 30.24 in 10.0 mi East 5.8 mph - N/A   Clear
1:10 AM 42.8 °F 38.0 °F 39.2 °F 87% 30.24 in 10.0 mi East 8.1 mph - N/A   Scattered Clouds
1:30 AM 44.6 °F 40.2 °F 39.2 °F 81% 30.23 in 10.0 mi East 8.1 mph - N/A   Mostly Cloudy
1:50 AM 44.6 °F 38.4 °F 39.2 °F 81% 30.23 in 10.0 mi ESE 12.7 mph - N/A   Scattered Clouds
2:10 AM 44.6 °F 38.1 °F 39.2 °F 81% 30.23 in 10.0 mi ESE 13.8 mph - N/A   Scattered Clouds
2:30 AM 44.6 °F 38.8 °F 41.0 °F 87% 30.22 in 10.0 mi ESE 11.5 mph 16.1 mph N/A   Overcast
2:50 AM 42.8 °F 38.0 °F 41.0 °F 93% 30.22 in 10.0 mi ESE 8.1 mph - N/A   Overcast
3:10 AM 42.8 °F 38.0 °F 42.8 °F 100% 30.21 in 10.0 mi ESE 8.1 mph - N/A   Overcast
3:30 AM 44.6 °F 39.7 °F 42.8 °F 93% 30.21 in 10.0 mi ESE 9.2 mph - N/A   Overcast
3:50 AM 44.6 °F 39.2 °F 42.8 °F 93% 30.20 in 10.0 mi ESE 10.4 mph - N/A   Overcast
4:10 AM 44.6 °F 39.2 °F 42.8 °F 93% 30.20 in 10.0 mi ESE 10.4 mph - N/A   Overcast
4:30 AM 42.8 °F 38.0 °F 42.8 °F 100% 30.20 in 10.0 mi ESE 8.1 mph - N/A   Overcast
4:50 AM 44.6 °F 40.2 °F 42.8 °F 93% 30.20 in 10.0 mi East 8.1 mph - N/A   Overcast
5:10 AM 44.6 °F 42.2 °F 44.6 °F 100% 30.21 in 10.0 mi East 4.6 mph - N/A   Overcast
5:30 AM 44.6 °F 40.2 °F 42.8 °F 93% 30.21 in 10.0 mi East 8.1 mph - N/A   Overcast
5:50 AM 44.6 °F 39.7 °F 44.6 °F 100% 30.21 in 10.0 mi ESE 9.2 mph - N/A   Overcast
6:10 AM 44.6 °F 38.8 °F 44.6 °F 100% 30.20 in 10.0 mi ESE 11.5 mph - N/A   Overcast
6:30 AM 44.6 °F 39.2 °F 44.6 °F 100% 30.20 in 10.0 mi East 10.4 mph 16.1 mph N/A   Mostly Cloudy
6:50 AM 44.6 °F 40.2 °F 44.6 °F 100% 30.21 in 10.0 mi East 8.1 mph - N/A   Scattered Clouds
7:10 AM 44.6 °F 40.2 °F 44.6 °F 100% 30.21 in 10.0 mi East 8.1 mph - N/A   Mostly Cloudy
7:30 AM 44.6 °F 39.7 °F 42.8 °F 93% 30.21 in 10.0 mi East 9.2 mph - N/A   Mostly Cloudy
7:50 AM 44.6 °F 42.2 °F 42.8 °F 93% 30.21 in 10.0 mi ENE 4.6 mph - N/A   Scattered Clouds
8:10 AM 44.6 °F 43.1 °F 42.8 °F 93% 30.21 in 10.0 mi NE 3.5 mph - N/A   Mostly Cloudy
8:30 AM 44.6 °F 43.1 °F 44.6 °F 100% 30.20 in 10.0 mi NNE 3.5 mph - N/A   Overcast
8:50 AM 44.6 °F 43.1 °F 42.8 °F 93% 30.20 in 10.0 mi East 3.5 mph - N/A   Overcast
9:10 AM 46.4 °F 44.3 °F 42.8 °F 87% 30.21 in 10.0 mi ENE 4.6 mph - N/A   Overcast
9:30 AM 46.4 °F 44.3 °F 42.8 °F 87% 30.21 in 10.0 mi East 4.6 mph - N/A   Overcast
9:50 AM 50.0 °F - 44.6 °F 82% 30.21 in 10.0 mi ESE 8.1 mph - N/A   Mostly Cloudy
10:10 AM 53.6 °F - 46.4 °F 77% 30.20 in 10.0 mi East 10.4 mph - N/A   Scattered Clouds
10:30 AM 53.6 °F - 46.4 °F 77% 30.20 in 10.0 mi ESE 8.1 mph - N/A   Scattered Clouds
10:50 AM 55.4 °F - 48.2 °F 77% 30.20 in 10.0 mi ESE 10.4 mph - N/A   Mostly Cloudy
11:10 AM 55.4 °F - 46.4 °F 72% 30.20 in 10.0 mi East 4.6 mph - N/A   Mostly Cloudy
11:30 AM 55.4 °F - 44.6 °F 67% 30.20 in 10.0 mi East 5.8 mph - N/A   Overcast
11:50 AM 59.0 °F - 46.4 °F 63% 30.20 in 10.0 mi East 9.2 mph - N/A   Overcast
12:10 PM 57.2 °F - 51.8 °F 82% 30.20 in 10.0 mi East 9.2 mph - N/A   Mostly Cloudy
12:30 PM 55.4 °F - 50.0 °F 82% 30.20 in 10.0 mi ESE 9.2 mph - N/A   Mostly Cloudy
12:50 PM 55.4 °F - 50.0 °F 82% 30.20 in 10.0 mi East 9.2 mph - N/A   Overcast
1:10 PM 55.4 °F - 50.0 °F 82% 30.19 in 10.0 mi East 6.9 mph - N/A   Mostly Cloudy
1:30 PM 55.4 °F - 50.0 °F 82% 30.19 in 10.0 mi East 3.5 mph - N/A   Overcast
1:50 PM 53.6 °F - 50.0 °F 88% 30.19 in 10.0 mi ENE 3.5 mph - N/A   Overcast
2:10 PM 53.6 °F - 51.8 °F 94% 30.18 in 10.0 mi NNE 3.5 mph - N/A   Overcast
2:30 PM 51.8 °F - 51.8 °F 100% 30.18 in 7.0 mi NNE 3.5 mph - N/A   Overcast
2:50 PM 51.8 °F - 51.8 °F 100% 30.18 in 10.0 mi Calm Calm - N/A   Overcast
3:10 PM 51.8 °F - 51.8 °F 100% 30.18 in 5.0 mi North 4.6 mph - N/A   Overcast
3:30 PM 51.8 °F - 51.8 °F 100% 30.17 in 5.0 mi North 3.5 mph - N/A   Overcast
3:50 PM 50.0 °F - 50.0 °F 100% 30.17 in 5.0 mi North 3.5 mph - N/A   Overcast
4:10 PM 50.0 °F - 50.0 °F 100% 30.16 in 5.0 mi Calm Calm - N/A   Overcast
4:30 PM 50.0 °F - 50.0 °F 100% 30.16 in 7.0 mi North 3.5 mph - N/A   Overcast
4:50 PM 50.0 °F - 50.0 °F 100% 30.16 in 4.0 mi Calm Calm - N/A   Overcast
5:10 PM 50.0 °F - 50.0 °F 100% 30.16 in 0.5 mi Calm Calm - N/A Fog Fog
5:30 PM 51.8 °F - 51.8 °F 100% 30.16 in 0.2 mi North 3.5 mph - N/A Fog Fog
5:50 PM 51.8 °F - 51.8 °F 100% 30.15 in 0.2 mi North 3.5 mph - N/A Fog Fog
6:10 PM 50.0 °F - 50.0 °F 100% 30.15 in 0.2 mi North 3.5 mph - N/A Fog Fog
6:30 PM 50.0 °F - 50.0 °F 100% 30.15 in 0.2 mi North 3.5 mph - N/A Fog Fog
6:50 PM 50.0 °F - 50.0 °F 100% 30.15 in 0.2 mi Calm Calm - N/A Fog Fog
7:10 PM 50.0 °F - 50.0 °F 100% 30.15 in 0.5 mi Calm Calm - N/A Fog Fog
7:30 PM 50.0 °F - 50.0 °F 100% 30.15 in 0.2 mi NNE 3.5 mph - N/A Fog Fog
7:50 PM 50.0 °F - - N/A% 30.14 in 0.2 mi Calm Calm - N/A Fog Fog
8:10 PM 50.0 °F - - N/A% 30.14 in 1.2 mi NNE 3.5 mph - N/A   Overcast
8:30 PM 50.0 °F - - N/A% 30.14 in 0.5 mi Calm Calm - N/A Fog Fog
8:50 PM 50.0 °F - - N/A% 30.13 in 1.0 mi North 4.6 mph - N/A   Overcast
9:10 PM 50.0 °F - - N/A% 30.13 in 0.5 mi NNE 4.6 mph - N/A Fog Fog
9:30 PM 50.0 °F - - N/A% 30.13 in 0.5 mi Calm Calm - N/A Fog Fog
9:50 PM 50.0 °F - - N/A% 30.13 in 0.5 mi Calm Calm - N/A Fog Fog
10:10 PM 50.0 °F - - N/A% 30.13 in 0.5 mi NE 3.5 mph - N/A Fog Fog
10:30 PM 50.0 °F - - N/A% 30.13 in 0.8 mi NE 3.5 mph - N/A   Overcast
10:50 PM 50.0 °F - - N/A% 30.13 in 1.8 mi ENE 3.5 mph - N/A   Overcast
11:10 PM 50.0 °F - - N/A% 30.12 in 0.5 mi NE 3.5 mph - N/A Fog Fog
11:30 PM 50.0 °F - - N/A% 30.11 in 0.5 mi NE 3.5 mph - N/A Fog Fog
11:50 PM 50.0 °F - - N/A% 30.11 in 0.2 mi ENE 5.8 mph - N/A Fog Fog